Spokane Fairchild, WA
on Sunday, December 2, 2012

Sunday
Previous Day Next Day
Daily Summary
 ActualAverage (KGEG)Record (KGEG)
Temperature
Mean Temperature °F / °C 30°F / -1°C  
Max Temperature 44°F / 7°C 34°F / 1°C 56°F / 13°C (1927)
Min Temperature 37°F / 3°C 25°F / -4°C 4°F / -15°C (1919)
Degree Days
Heating Degree Days 24 35  
Month to date heating degree days 70  
Since 1 July heating degree days 1737  
Cooling Degree Days 0 0  
Month to date cooling degree days 0  
Year to date cooling degree days 450  
Moisture
Dew Point 40°F / 4°C   
Average Humidity 100    
Maximum Humidity 100    
Minimum Humidity 80    
Precipitation
Precipitation 0.30 in / 7.62 cm 0.08 in / 2.03 cm 0.97 in / 2.46 cm (1941)
Month to date precipitation 0.17  
Year to date precipitation 14.43  
Snow
Snow 0.00 in / 0.00 cm 0.40 in / 1.02 cm 6.00 in / 15.24 cm (1922)
Month to date snowfall 0.8  
Since 1 July snowfall 8.3  
Snow Depth in / cm   
Wind
Wind Speed 13 mph / 21 km/h   
Max Wind Speed 32 mph / 52 km/h   
Max Gust Speed 36 mph / 58 km/h   
Visibility 9 miles / 15 kilometers   
Events Rain , Snow   

Key: T is trace of precipitation, MM is missing value
Source: NWS Daily Summary
Time(PST)TemperatureDew PointHumidity Pressure Visibility Wind DirectionWind SpeedGust SpeedPrecipitationEvents Conditions
12:58 AM 40.3°F / 4.6°C 40.3°F / 4.6°C 100% 29.48 in / 998.1 hPa 10.0 miles / 16.1 kilometers ESE 8.1 mph / 13.0 km/h - 0.00 in / 0.0 cm Rain Light Rain
1:13 AM 39.2°F / 4.0°C 39.2°F / 4.0°C 100% 29.44 in / 996.8 hPa 10.0 miles / 16.1 kilometers ESE 9.2 mph / 14.8 km/h - N/A Rain Light Rain
1:18 AM 39.2°F / 4.0°C 39.2°F / 4.0°C 100% 29.43 in / 996.5 hPa 10.0 miles / 16.1 kilometers ESE 9.2 mph / 14.8 km/h - N/A Rain Light Rain
1:53 AM 39.2°F / 4.0°C 39.2°F / 4.0°C 100% 29.40 in / 995.5 hPa 9.0 miles / 14.5 kilometers ESE 10.4 mph / 16.7 km/h - N/A Rain Light Rain
1:54 AM 39.2°F / 4.0°C 39.2°F / 4.0°C 100% 29.40 in / 995.5 hPa 9.0 miles / 14.5 kilometers ESE 9.2 mph / 14.8 km/h - N/A Rain Light Rain
1:58 AM 39.6°F / 4.2°C 39.6°F / 4.2°C 100% 29.43 in / 996.5 hPa 9.0 miles / 14.5 kilometers ESE 8.1 mph / 13.0 km/h - 0.01 in / 0.3 cm Rain Light Rain
2:03 AM 39.2°F / 4.0°C 39.2°F / 4.0°C 100% 29.40 in / 995.5 hPa 10.0 miles / 16.1 kilometers ESE 11.5 mph / 18.5 km/h - N/A Rain Light Rain
2:08 AM 39.2°F / 4.0°C 39.2°F / 4.0°C 100% 29.39 in / 995.1 hPa 10.0 miles / 16.1 kilometers ESE 11.5 mph / 18.5 km/h - N/A Rain Light Rain
2:33 AM 39.2°F / 4.0°C 39.2°F / 4.0°C 100% 29.36 in / 994.1 hPa 10.0 miles / 16.1 kilometers ESE 15.0 mph / 24.1 km/h - N/A Rain Light Rain
2:43 AM 39.2°F / 4.0°C 39.2°F / 4.0°C 100% 29.34 in / 993.5 hPa 9.0 miles / 14.5 kilometers East 12.7 mph / 20.4 km/h - N/A Rain Light Rain
2:58 AM 38.7°F / 3.7°C 38.7°F / 3.7°C 100% 29.37 in / 994.3 hPa 9.0 miles / 14.5 kilometers East 13.8 mph / 22.2 km/h 23.0 mph / 37.0 km/h 0.04 in / 1.0 cm Rain Light Rain
3:03 AM 39.2°F / 4.0°C 39.2°F / 4.0°C 100% 29.32 in / 992.8 hPa 10.0 miles / 16.1 kilometers East 11.5 mph / 18.5 km/h 23.0 mph / 37.0 km/h N/A Rain Light Rain
3:28 AM 39.2°F / 4.0°C 39.2°F / 4.0°C 100% 29.30 in / 992.1 hPa 9.0 miles / 14.5 kilometers East 13.8 mph / 22.2 km/h - N/A Rain Light Rain
3:33 AM 39.2°F / 4.0°C 39.2°F / 4.0°C 100% 29.29 in / 991.8 hPa 9.0 miles / 14.5 kilometers East 11.5 mph / 18.5 km/h - N/A Rain Light Rain
3:38 AM 37.4°F / 3.0°C 37.4°F / 3.0°C 100% 29.29 in / 991.8 hPa 10.0 miles / 16.1 kilometers East 11.5 mph / 18.5 km/h - N/A Rain Rain
3:43 AM 37.4°F / 3.0°C 37.4°F / 3.0°C 100% 29.29 in / 991.8 hPa 9.0 miles / 14.5 kilometers East 11.5 mph / 18.5 km/h - N/A Rain Light Rain
3:58 AM 38.1°F / 3.4°C 38.1°F / 3.4°C 100% 29.32 in / 992.8 hPa 9.0 miles / 14.5 kilometers East 10.4 mph / 16.7 km/h - 0.04 in / 1.0 cm Rain Rain
4:53 AM 37.4°F / 3.0°C 37.4°F / 3.0°C 100% 29.23 in / 989.7 hPa 8.0 miles / 12.9 kilometers East 9.2 mph / 14.8 km/h - N/A Rain Rain
4:58 AM 37.9°F / 3.3°C 37.9°F / 3.3°C 100% 29.29 in / 991.6 hPa 8.0 miles / 12.9 kilometers ENE 8.1 mph / 13.0 km/h - 0.09 in / 2.3 cm Rain Rain
5:23 AM 37.4°F / 3.0°C 37.4°F / 3.0°C 100% 29.21 in / 989.1 hPa 7.0 miles / 11.3 kilometers ENE 8.1 mph / 13.0 km/h - N/A Rain Light Rain
5:28 AM 37.4°F / 3.0°C 37.4°F / 3.0°C 100% 29.20 in / 988.7 hPa 7.0 miles / 11.3 kilometers NE 5.8 mph / 9.3 km/h - N/A Rain Light Rain
5:43 AM 37.4°F / 3.0°C 37.4°F / 3.0°C 100% 29.19 in / 988.4 hPa 6.0 miles / 9.7 kilometers ENE 9.2 mph / 14.8 km/h - N/A Rain Rain
5:48 AM 37.4°F / 3.0°C 37.4°F / 3.0°C 100% 29.19 in / 988.4 hPa 5.0 miles / 8.0 kilometers ENE 9.2 mph / 14.8 km/h - N/A Rain Rain
5:58 AM 37.4°F / 3.0°C 37.4°F / 3.0°C 100% 29.22 in / 989.5 hPa 6.0 miles / 9.7 kilometers East 6.9 mph / 11.1 km/h - 0.04 in / 1.0 cm Rain Light Rain
6:18 AM 37.4°F / 3.0°C 37.4°F / 3.0°C 100% 29.18 in / 988.0 hPa 4.0 miles / 6.4 kilometers East 5.8 mph / 9.3 km/h - N/A Rain Light Rain
6:28 AM 37.4°F / 3.0°C 37.4°F / 3.0°C 100% 29.18 in / 988.0 hPa 5.0 miles / 8.0 kilometers East 4.6 mph / 7.4 km/h - N/A Rain Light Rain
6:38 AM 39.2°F / 4.0°C 39.2°F / 4.0°C 100% 29.18 in / 988.0 hPa 8.0 miles / 12.9 kilometers East 5.8 mph / 9.3 km/h - N/A Rain Light Rain
6:43 AM 39.2°F / 4.0°C 39.2°F / 4.0°C 100% 29.18 in / 988.0 hPa 10.0 miles / 16.1 kilometers Variable 4.6 mph / 7.4 km/h - N/A Rain Light Rain
6:53 AM 39.2°F / 4.0°C 39.2°F / 4.0°C 100% 29.18 in / 988.0 hPa 10.0 miles / 16.1 kilometers SSE 9.2 mph / 14.8 km/h - N/A Rain Light Rain
6:58 AM 39.7°F / 4.3°C 39.7°F / 4.3°C 100% 29.22 in / 989.3 hPa 10.0 miles / 16.1 kilometers SE 9.2 mph / 14.8 km/h - 0.03 in / 0.8 cm Rain Light Rain
7:13 AM 41.0°F / 5.0°C 41.0°F / 5.0°C 100% 29.17 in / 987.7 hPa 10.0 miles / 16.1 kilometers SSE 13.8 mph / 22.2 km/h - N/A Rain Light Rain
7:58 AM 43.2°F / 6.2°C 43.2°F / 6.2°C 100% 29.21 in / 989.0 hPa 9.0 miles / 14.5 kilometers SSW 18.4 mph / 29.6 km/h 27.6 mph / 44.4 km/h 0.02 in / 0.5 cm Rain Light Rain
8:13 AM 42.8°F / 6.0°C 42.8°F / 6.0°C 100% 29.19 in / 988.4 hPa 9.0 miles / 14.5 kilometers SSW 17.3 mph / 27.8 km/h 32.2 mph / 51.9 km/h N/A Rain Light Rain
8:18 AM 42.8°F / 6.0°C 42.8°F / 6.0°C 100% 29.19 in / 988.4 hPa 9.0 miles / 14.5 kilometers SSW 24.2 mph / 38.9 km/h 33.4 mph / 53.7 km/h N/A Rain Light Rain
8:33 AM 42.8°F / 6.0°C 42.8°F / 6.0°C 100% 29.20 in / 988.7 hPa 4.0 miles / 6.4 kilometers SW 25.3 mph / 40.7 km/h 29.9 mph / 48.2 km/h N/A Rain Light Rain
8:58 AM 42.8°F / 6.0°C 42.8°F / 6.0°C 100% 29.24 in / 990.0 hPa 10.0 miles / 16.1 kilometers SW 20.7 mph / 33.3 km/h 25.3 mph / 40.7 km/h 0.00 in / 0.0 cm   Light Drizzle
9:38 AM 41.0°F / 5.0°C 41.0°F / 5.0°C 100% 29.25 in / 990.4 hPa 10.0 miles / 16.1 kilometers SW 18.4 mph / 29.6 km/h 24.2 mph / 38.9 km/h N/A   Light Drizzle
9:58 AM 41.2°F / 5.1°C 41.2°F / 5.1°C 100% 29.29 in / 991.9 hPa 10.0 miles / 16.1 kilometers SW 20.7 mph / 33.3 km/h 27.6 mph / 44.4 km/h 0.00 in / 0.0 cm   Light Drizzle
10:58 AM 41.0°F / 5.0°C 41.0°F / 5.0°C 100% 29.34 in / 993.6 hPa 10.0 miles / 16.1 kilometers SW 21.9 mph / 35.2 km/h 29.9 mph / 48.2 km/h 0.00 in / 0.0 cm Rain Light Rain
11:28 AM 41.0°F / 5.0°C 41.0°F / 5.0°C 100% 29.33 in / 993.1 hPa 10.0 miles / 16.1 kilometers SW 18.4 mph / 29.6 km/h 28.8 mph / 46.3 km/h N/A   Light Drizzle
11:32 AM 41.0°F / 5.0°C 41.0°F / 5.0°C 100% 29.33 in / 993.1 hPa 10.0 miles / 16.1 kilometers SW 18.4 mph / 29.6 km/h 26.5 mph / 42.6 km/h N/A   Light Drizzle
11:42 AM 41.0°F / 5.0°C 41.0°F / 5.0°C 100% 29.34 in / 993.5 hPa 10.0 miles / 16.1 kilometers SW 19.6 mph / 31.5 km/h 28.8 mph / 46.3 km/h N/A   Light Drizzle
11:47 AM 41.0°F / 5.0°C 41.0°F / 5.0°C 100% 29.34 in / 993.5 hPa 10.0 miles / 16.1 kilometers SW 20.7 mph / 33.3 km/h 28.8 mph / 46.3 km/h N/A Rain Light Rain
11:58 AM 42.1°F / 5.6°C 41.9°F / 5.5°C 99% 29.38 in / 994.8 hPa 10.0 miles / 16.1 kilometers SSW 19.6 mph / 31.5 km/h 26.5 mph / 42.6 km/h 0.00 in / 0.0 cm   Light Drizzle
12:08 PM 42.8°F / 6.0°C 42.8°F / 6.0°C 100% 29.36 in / 994.1 hPa 10.0 miles / 16.1 kilometers SSW 20.7 mph / 33.3 km/h 26.5 mph / 42.6 km/h N/A   Light Drizzle
12:13 PM 42.8°F / 6.0°C 42.8°F / 6.0°C 100% 29.37 in / 994.5 hPa 10.0 miles / 16.1 kilometers SW 21.9 mph / 35.2 km/h 26.5 mph / 42.6 km/h N/A   Light Drizzle
12:23 PM 42.8°F / 6.0°C 42.8°F / 6.0°C 100% 29.38 in / 994.8 hPa 10.0 miles / 16.1 kilometers SW 20.7 mph / 33.3 km/h 26.5 mph / 42.6 km/h N/A Rain Light Rain
12:33 PM 42.8°F / 6.0°C 42.8°F / 6.0°C 100% 29.39 in / 995.1 hPa 10.0 miles / 16.1 kilometers SW 24.2 mph / 38.9 km/h 29.9 mph / 48.2 km/h N/A   Light Drizzle
12:58 PM 44.4°F / 6.9°C 44.4°F / 6.9°C 100% 29.43 in / 996.5 hPa 10.0 miles / 16.1 kilometers SW 26.5 mph / 42.6 km/h 34.5 mph / 55.6 km/h 0.00 in / 0.0 cm   Mostly Cloudy
1:03 PM 44.6°F / 7.0°C 44.6°F / 7.0°C 100% 29.40 in / 995.5 hPa 10.0 miles / 16.1 kilometers SW 27.6 mph / 44.4 km/h 34.5 mph / 55.6 km/h N/A   Mostly Cloudy
1:05 PM 44.6°F / 7.0°C 44.6°F / 7.0°C 100% 29.41 in / 995.8 hPa 10.0 miles / 16.1 kilometers SW 26.5 mph / 42.6 km/h 34.5 mph / 55.6 km/h N/A Rain Light Rain
1:06 PM 44.6°F / 7.0°C 44.6°F / 7.0°C 100% 29.41 in / 995.8 hPa 10.0 miles / 16.1 kilometers SW 26.5 mph / 42.6 km/h 34.5 mph / 55.6 km/h N/A   Scattered Clouds
1:12 PM 44.6°F / 7.0°C 44.6°F / 7.0°C 100% 29.41 in / 995.8 hPa 10.0 miles / 16.1 kilometers SW 32.2 mph / 51.9 km/h 35.7 mph / 57.4 km/h N/A Rain Light Rain
1:58 PM 44.6°F / 7.0°C 38.7°F / 3.7°C 80% 29.49 in / 998.6 hPa 10.0 miles / 16.1 kilometers SW 18.4 mph / 29.6 km/h 35.7 mph / 57.4 km/h 0.03 in / 0.8 cm Rain Light Rain
2:58 PM 42.6°F / 5.9°C 42.6°F / 5.9°C 100% 29.56 in / 1000.9 hPa 10.0 miles / 16.1 kilometers SW 20.7 mph / 33.3 km/h 33.4 mph / 53.7 km/h 0.00 in / 0.0 cm   Light Drizzle
3:58 PM 41.5°F / 5.3°C 41.5°F / 5.3°C 100% 29.62 in / 1002.8 hPa 10.0 miles / 16.1 kilometers SSW 15.0 mph / 24.1 km/h - 0.00 in / 0.0 cm   Light Drizzle
4:07 PM 41.0°F / 5.0°C 41.0°F / 5.0°C 100% 29.58 in / 1001.6 hPa 10.0 miles / 16.1 kilometers SSW 16.1 mph / 25.9 km/h - N/A   Clear
4:14 PM 41.0°F / 5.0°C 41.0°F / 5.0°C 100% 29.58 in / 1001.6 hPa 10.0 miles / 16.1 kilometers SSW 17.3 mph / 27.8 km/h - N/A   Light Drizzle
4:35 PM 39.2°F / 4.0°C 39.2°F / 4.0°C 100% 29.59 in / 1001.9 hPa 10.0 miles / 16.1 kilometers SSW 18.4 mph / 29.6 km/h 23.0 mph / 37.0 km/h N/A   Clear
4:39 PM 39.2°F / 4.0°C 39.2°F / 4.0°C 100% 29.60 in / 1002.3 hPa 10.0 miles / 16.1 kilometers SSW 17.3 mph / 27.8 km/h 23.0 mph / 37.0 km/h N/A   Light Drizzle
4:51 PM 39.2°F / 4.0°C 39.2°F / 4.0°C 100% 29.61 in / 1002.6 hPa 10.0 miles / 16.1 kilometers SSW 12.7 mph / 20.4 km/h - N/A   Clear
4:52 PM 39.2°F / 4.0°C 39.2°F / 4.0°C 100% 29.61 in / 1002.6 hPa 10.0 miles / 16.1 kilometers SSW 13.8 mph / 22.2 km/h - N/A   Light Drizzle
4:58 PM 39.7°F / 4.3°C 39.7°F / 4.3°C 100% 29.66 in / 1004.2 hPa 10.0 miles / 16.1 kilometers SSW 18.4 mph / 29.6 km/h 21.9 mph / 35.2 km/h 0.00 in / 0.0 cm   Light Drizzle
4:59 PM 39.2°F / 4.0°C 39.2°F / 4.0°C 100% 29.61 in / 1002.6 hPa 10.0 miles / 16.1 kilometers SSW 17.3 mph / 27.8 km/h 21.9 mph / 35.2 km/h N/A   Clear
5:05 PM 39.2°F / 4.0°C 39.2°F / 4.0°C 100% 29.62 in / 1002.9 hPa 10.0 miles / 16.1 kilometers SSW 16.1 mph / 25.9 km/h 23.0 mph / 37.0 km/h N/A   Light Drizzle
5:21 PM 39.2°F / 4.0°C 39.2°F / 4.0°C 100% 29.62 in / 1002.9 hPa 10.0 miles / 16.1 kilometers SSW 19.6 mph / 31.5 km/h 27.6 mph / 44.4 km/h N/A   Clear
5:58 PM 38.5°F / 3.6°C 38.5°F / 3.6°C 100% 29.70 in / 1005.5 hPa 10.0 miles / 16.1 kilometers SSW 15.0 mph / 24.1 km/h 21.9 mph / 35.2 km/h 0.00 in / 0.0 cm   Partly Cloudy
6:58 PM 38.1°F / 3.4°C 38.1°F / 3.4°C 100% 29.74 in / 1006.9 hPa 10.0 miles / 16.1 kilometers SSW 16.1 mph / 25.9 km/h - N/A   Mostly Cloudy
7:29 PM 37.4°F / 3.0°C 37.4°F / 3.0°C 100% 29.70 in / 1005.6 hPa 10.0 miles / 16.1 kilometers SSW 16.1 mph / 25.9 km/h - N/A   Partly Cloudy
7:58 PM 38.7°F / 3.7°C 38.7°F / 3.7°C 100% 29.74 in / 1007.1 hPa 10.0 miles / 16.1 kilometers SSW 17.3 mph / 27.8 km/h 25.3 mph / 40.7 km/h 0.00 in / 0.0 cm   Mostly Cloudy
8:42 PM 37.4°F / 3.0°C 37.4°F / 3.0°C 100% 29.72 in / 1006.3 hPa 10.0 miles / 16.1 kilometers SSW 17.3 mph / 27.8 km/h - N/A   Scattered Clouds
8:55 PM 37.4°F / 3.0°C 37.4°F / 3.0°C 100% 29.72 in / 1006.3 hPa 10.0 miles / 16.1 kilometers SSW 17.3 mph / 27.8 km/h 26.5 mph / 42.6 km/h N/A   Partly Cloudy
8:58 PM 37.6°F / 3.1°C 37.6°F / 3.1°C 100% 29.77 in / 1008.0 hPa 10.0 miles / 16.1 kilometers SSW 18.4 mph / 29.6 km/h 26.5 mph / 42.6 km/h 0.00 in / 0.0 cm   Scattered Clouds
9:19 PM 37.4°F / 3.0°C 37.4°F / 3.0°C 100% 29.74 in / 1007.0 hPa 10.0 miles / 16.1 kilometers SSW 20.7 mph / 33.3 km/h 27.6 mph / 44.4 km/h N/A   Partly Cloudy
9:20 PM 37.4°F / 3.0°C 37.4°F / 3.0°C 100% 29.74 in / 1007.0 hPa 10.0 miles / 16.1 kilometers SSW 18.4 mph / 29.6 km/h 27.6 mph / 44.4 km/h N/A Snow Light Snow
9:23 PM 37.4°F / 3.0°C 37.4°F / 3.0°C 100% 29.74 in / 1007.0 hPa 10.0 miles / 16.1 kilometers SSW 19.6 mph / 31.5 km/h 27.6 mph / 44.4 km/h N/A   Scattered Clouds
9:29 PM 37.4°F / 3.0°C 37.4°F / 3.0°C 100% 29.75 in / 1007.3 hPa 10.0 miles / 16.1 kilometers SSW 18.4 mph / 29.6 km/h 27.6 mph / 44.4 km/h N/A Snow Light Snow
9:30 PM 37.4°F / 3.0°C 37.4°F / 3.0°C 100% 29.75 in / 1007.3 hPa 10.0 miles / 16.1 kilometers SSW 17.3 mph / 27.8 km/h 27.6 mph / 44.4 km/h N/A   Mostly Cloudy
9:58 PM 37.6°F / 3.1°C 37.6°F / 3.1°C 100% 29.80 in / 1009.0 hPa 10.0 miles / 16.1 kilometers SSW 12.7 mph / 20.4 km/h 21.9 mph / 35.2 km/h 0.00 in / 0.0 cm   Clear
10:12 PM 37.4°F / 3.0°C 37.4°F / 3.0°C 100% 29.75 in / 1007.3 hPa 10.0 miles / 16.1 kilometers SSW 15.0 mph / 24.1 km/h - N/A   Clear
10:58 PM 37.9°F / 3.3°C 37.9°F / 3.3°C 100% 29.82 in / 1009.7 hPa 10.0 miles / 16.1 kilometers SSW 18.4 mph / 29.6 km/h 25.3 mph / 40.7 km/h 0.00 in / 0.0 cm Snow Light Snow
11:18 PM 37.4°F / 3.0°C 37.4°F / 3.0°C 100% 29.78 in / 1008.4 hPa 10.0 miles / 16.1 kilometers SSW 15.0 mph / 24.1 km/h 26.5 mph / 42.6 km/h N/A   Overcast
11:58 PM 38.5°F / 3.6°C 38.5°F / 3.6°C 100% 29.83 in / 1010.2 hPa 10.0 miles / 16.1 kilometers SSW 17.3 mph / 27.8 km/h 25.3 mph / 40.7 km/h 0.00 in / 0.0 cm   Overcast
Moon Phase
Dec. 02 Dec. 06 Dec. 13 Dec. 20 Dec. 28
Sunrise:07:19 AM (PST) Moon Rise:08:00 PM (PST)12/2
Sunset:04:00 PM (PST) Moon Set:10:05 AM (PST)12/2

Copyright © 2014 The Weather Underground, Inc.